Home > Weather > Wailuku > Past weeks

Flag for USA Past Weather in Wailuku, Hawaii, USA — Yesterday and Last 2 Weeks

Now
86 °F

Passing clouds.


Feels Like: 89 °F
Forecast: 75 / 88 °F
Wind: 22 mph from Northeast

Location: Kahului Airport

Current Time: Jul 27, 2016 at 4:53:40 PM

Latest Report: Jul 27, 2016 at 3:54 PM


Visibility: 10 mi

Pressure: 29.96 "Hg

Humidity: 53%

Dew Point: 67 °F

Location of WailukuLocation

Past Weather in Wailuku — Graph

°F

Wailuku Temperature Yesterday

Maximum temperature yesterday: 92 °F (at 12:54 PM)
Minimum temperature yesterday: 70 °F (at 5:42 AM)
Average temperature yesterday: 80 °F

High & Low Weather Summary for the Past Weeks

 TemperatureHumidityPressure
High93 °F (Jul 19, 12:54 PM)96% (Jul 23, 12:54 PM)30.09 "Hg (Jul 23, 12:54 PM)
Low70 °F (Jul 26, 5:42 AM)46% (Jul 19, 12:54 PM)29.83 "Hg (Jul 23, 5:44 PM)
Average80 °F75%29.98 "Hg
* Reported Jul 12 2:54 PM — Jul 27 2:54 PM, Wailuku, Weather by CustomWeather, © 2016

Note: Actual official high and low records may vary slightly from our data, if they occured in-between our weather recording intervals... More about our weather records

Advertising

Wailuku Weather History for the Previous 24 Hours

Scroll right to see more
 ConditionsComfort  
Time TempWeatherWind HumidityBarometerVisibility
2:54 PM
Wed, Jul 27
87 °FScattered clouds.26 mph57%29.96 "Hg10 mi
1:54 PM88 °FScattered clouds.23 mph52%29.98 "Hg10 mi
12:54 PM90 °FScattered clouds.24 mph50%29.99 "Hg10 mi
11:54 AM89 °FScattered clouds.26 mph53%30.00 "Hg10 mi
10:54 AM89 °FScattered clouds.23 mph52%30.02 "Hg10 mi
9:54 AM86 °FScattered clouds.22 mph57%30.03 "Hg10 mi
8:54 AM84 °FScattered clouds.23 mph63%30.03 "Hg10 mi
7:54 AM82 °FScattered clouds.16 mph67%30.03 "Hg10 mi
6:54 AM79 °FPassing clouds.17 mph77%30.02 "Hg10 mi
5:54 AM78 °FPassing clouds.22 mph74%30.00 "Hg10 mi
4:54 AM78 °FClear.15 mph76%30.00 "Hg10 mi
3:54 AM78 °FClear.16 mph76%29.99 "Hg10 mi
2:54 AM77 °FClear.14 mph79%29.99 "Hg10 mi
1:54 AM78 °FClear.14 mph79%30.00 "Hg10 mi
12:54 AM78 °FClear.22 mph79%30.01 "Hg10 mi
11:54 PM
Tue, Jul 26
78 °FClear.16 mph79%30.03 "Hg10 mi
10:54 PM78 °FClear.22 mph74%30.03 "Hg10 mi
9:54 PM79 °FClear.18 mph69%30.03 "Hg10 mi
8:54 PM79 °FPassing clouds.18 mph74%30.01 "Hg10 mi
7:54 PM80 °FPassing clouds.23 mph74%30.00 "Hg10 mi
6:54 PM82 °FScattered clouds.16 mph67%29.99 "Hg10 mi
5:54 PM85 °FScattered clouds.22 mph61%29.97 "Hg10 mi
4:54 PM87 °FScattered clouds.22 mph55%29.94 "Hg10 mi
Weather by CustomWeather, © 2016

See weather overviewHow to use our weather pages